JBU173 TNCM-KBOS

Flight info

Callsign JBU173
Flight time 4h 37m
Altitude 38000
Route PJM B520 LARPP Y318 DONQU DCT LAMER/M079F380 L453 SAUCR Y485 SILLY/N0454F380 Y485 YAALE Y495 OWENZ DCT SHERL DCT ORCHA DCT ROBUC ROBUC3
Aircraft A21N/M-SDE2E3FGHIRWXY/LB1

Departure

Time 2026-05-07 20:37
Airport Princess Juliana International Airport (TNCM)

Arrival

Time 2026-05-08 01:14
Airport Boston Logan International Airport (KBOS)
Time Latitude Longitude Altitude Speed Heading
2026-05-07 20:24 18.04348 -63.11224 51 ft 0 kts 352°
2026-05-07 20:25 18.04345 -63.11223 51 ft 2 kts 352°
2026-05-07 20:26 18.04327 -63.11221 24 ft 3 kts
2026-05-07 20:26 18.04308 -63.11224 27 ft 3 kts 23°
2026-05-07 20:26 18.04293 -63.11234 24 ft 3 kts 58°
2026-05-07 20:26 18.04284 -63.11252 24 ft 3 kts 61°
2026-05-07 20:27 18.04274 -63.11270 25 ft 3 kts 60°
2026-05-07 20:27 18.04266 -63.11284 27 ft 2 kts 59°
2026-05-07 20:27 18.04255 -63.11301 26 ft 3 kts 43°
2026-05-07 20:27 18.04240 -63.11312 28 ft 3 kts 15°
2026-05-07 20:28 18.04220 -63.11314 27 ft 3 kts 348°
2026-05-07 20:28 18.04201 -63.11308 27 ft 3 kts 339°
2026-05-07 20:28 18.04186 -63.11303 25 ft 1 kts 347°
2026-05-07 20:28 18.04185 -63.11303 25 ft 0 kts 347°
2026-05-07 20:32 18.04199 -63.11306 26 ft 7 kts 345°
2026-05-07 20:32 18.04235 -63.11335 27 ft 7 kts 300°
2026-05-07 20:32 18.04236 -63.11380 25 ft 6 kts 259°
2026-05-07 20:33 18.04228 -63.11429 26 ft 7 kts 261°
2026-05-07 20:33 18.04218 -63.11478 24 ft 7 kts 244°
2026-05-07 20:33 18.04189 -63.11519 25 ft 7 kts 231°
2026-05-07 20:33 18.04156 -63.11562 26 ft 8 kts 231°
2026-05-07 20:34 18.04122 -63.11606 26 ft 8 kts 231°
2026-05-07 20:34 18.04086 -63.11652 24 ft 8 kts 231°
2026-05-07 20:34 18.04061 -63.11707 24 ft 8 kts 258°
2026-05-07 20:34 18.04053 -63.11770 27 ft 9 kts 262°
2026-05-07 20:35 18.04043 -63.11836 24 ft 9 kts 262°
2026-05-07 20:35 18.04027 -63.11902 24 ft 9 kts 242°
2026-05-07 20:35 18.03991 -63.11955 25 ft 8 kts 222°
2026-05-07 20:35 18.03946 -63.11960 25 ft 6 kts 140°
2026-05-07 20:36 18.03945 -63.11928 25 ft 4 kts 80°
2026-05-07 20:36 18.03965 -63.11809 25 ft 40 kts 81°
2026-05-07 20:36 18.04035 -63.11293 23 ft 103 kts 82°
2026-05-07 20:36 18.04172 -63.10335 30 ft 158 kts 82°
2026-05-07 20:37 18.04326 -63.09163 410 ft 162 kts 88°
2026-05-07 20:37 18.04048 -63.08035 874 ft 167 kts 124°
2026-05-07 20:37 18.03079 -63.07355 1232 ft 176 kts 165°
2026-05-07 20:37 18.01871 -63.07560 1745 ft 186 kts 210°
2026-05-07 20:38 18.00858 -63.08555 2031 ft 214 kts 229°
2026-05-07 20:38 17.99900 -63.09862 2344 ft 238 kts 232°
2026-05-07 20:38 17.98874 -63.11320 2751 ft 255 kts 232°
2026-05-07 20:38 17.97786 -63.12845 3308 ft 268 kts 232°
2026-05-07 20:39 17.96638 -63.14427 4010 ft 274 kts 232°
2026-05-07 20:39 17.95472 -63.16020 4842 ft 277 kts 232°
2026-05-07 20:39 17.94280 -63.17639 5570 ft 283 kts 232°
2026-05-07 20:39 17.93059 -63.19291 6283 ft 288 kts 232°
2026-05-07 20:40 17.91826 -63.20957 7113 ft 289 kts 232°
2026-05-07 20:40 17.90634 -63.22627 7923 ft 290 kts 240°
2026-05-07 20:40 17.90046 -63.24615 8691 ft 287 kts 273°
2026-05-07 20:40 17.90537 -63.26608 9460 ft 284 kts 303°
2026-05-07 20:41 17.91946 -63.28011 10176 ft 284 kts 332°
2026-05-07 20:41 17.93756 -63.28972 10525 ft 301 kts 328°
2026-05-07 20:41 17.95247 -63.30595 10742 ft 322 kts 301°
2026-05-07 20:41 17.96275 -63.32760 10971 ft 340 kts 295°
2026-05-07 20:42 17.97283 -63.35067 11193 ft 356 kts 296°
2026-05-07 20:42 17.98382 -63.37459 11399 ft 370 kts 297°
2026-05-07 20:42 17.99558 -63.39903 11703 ft 378 kts 298°
2026-05-07 20:42 18.00779 -63.42371 12141 ft 383 kts 298°
2026-05-07 20:43 18.02024 -63.44853 12600 ft 385 kts 299°
2026-05-07 20:43 18.03282 -63.47342 13098 ft 387 kts 299°
2026-05-07 20:43 18.04555 -63.49853 13549 ft 390 kts 299°
2026-05-07 20:43 18.05840 -63.52380 13964 ft 394 kts 299°
2026-05-07 20:44 18.07138 -63.54929 14333 ft 396 kts 299°
2026-05-07 20:44 18.08440 -63.57487 14731 ft 398 kts 299°
2026-05-07 20:44 18.09748 -63.60059 15119 ft 400 kts 299°
2026-05-07 20:44 18.11063 -63.62649 15477 ft 403 kts 299°
2026-05-07 20:45 18.12321 -63.65296 15844 ft 406 kts 294°
2026-05-07 20:45 18.13203 -63.68123 16210 ft 410 kts 287°
2026-05-07 20:45 18.13875 -63.71042 16579 ft 412 kts 284°
2026-05-07 20:45 18.14439 -63.74009 16914 ft 415 kts 282°
2026-05-07 20:46 18.14945 -63.77005 17221 ft 418 kts 281°
2026-05-07 20:46 18.15429 -63.80024 17531 ft 420 kts 281°
2026-05-07 20:46 18.15911 -63.83056 17827 ft 422 kts 281°
2026-05-07 20:46 18.16401 -63.86104 18107 ft 423 kts 281°
2026-05-07 20:47 18.16900 -63.89156 18362 ft 425 kts 281°
2026-05-07 20:47 18.17408 -63.92224 18564 ft 427 kts 282°
2026-05-07 20:47 18.17923 -63.95303 18754 ft 428 kts 282°
2026-05-07 20:47 18.18265 -63.97346 18884 ft 429 kts 282°
2026-05-07 20:48 18.18785 -64.00441 19055 ft 431 kts 282°
2026-05-07 20:48 18.19307 -64.03550 19225 ft 432 kts 282°
2026-05-07 20:48 18.19846 -64.06666 19356 ft 433 kts 284°
2026-05-07 20:48 18.20954 -64.10688 19532 ft 433 kts 293°
2026-05-07 20:49 18.22215 -64.13557 19659 ft 432 kts 299°
2026-05-07 20:49 18.23181 -64.15438 19757 ft 432 kts 301°
2026-05-07 20:49 18.24698 -64.18170 19886 ft 433 kts 303°
2026-05-07 20:49 18.26274 -64.20867 20004 ft 434 kts 304°
2026-05-07 20:50 18.27857 -64.23520 20115 ft 435 kts 304°
2026-05-07 20:50 18.29477 -64.26226 20193 ft 437 kts 304°
2026-05-07 20:50 18.31092 -64.28935 20306 ft 438 kts 304°
2026-05-07 20:50 18.32704 -64.31659 20444 ft 439 kts 304°
2026-05-07 20:51 18.34313 -64.34394 20586 ft 440 kts 304°
2026-05-07 20:51 18.35920 -64.37135 20714 ft 441 kts 304°
2026-05-07 20:51 18.37532 -64.39893 20853 ft 443 kts 304°
2026-05-07 20:51 18.39148 -64.42661 21001 ft 444 kts 304°
2026-05-07 20:52 18.40764 -64.45433 21167 ft 445 kts 304°
2026-05-07 20:52 18.42390 -64.48221 21327 ft 447 kts 304°
2026-05-07 20:52 18.44018 -64.51012 21509 ft 448 kts 304°
2026-05-07 20:52 18.45652 -64.53815 21681 ft 450 kts 304°
2026-05-07 20:53 18.47287 -64.56621 21892 ft 451 kts 304°
2026-05-07 20:53 18.48932 -64.59444 22079 ft 453 kts 304°
2026-05-07 20:53 18.50581 -64.62277 22267 ft 454 kts 304°
2026-05-07 20:53 18.52237 -64.65122 22464 ft 456 kts 304°
2026-05-07 20:54 18.53896 -64.67973 22674 ft 458 kts 304°
2026-05-07 20:54 18.55564 -64.70841 22867 ft 459 kts 304°
2026-05-07 20:54 18.57235 -64.73717 23068 ft 461 kts 304°
2026-05-07 20:54 18.58913 -64.76604 23276 ft 463 kts 304°
2026-05-07 20:55 18.60597 -64.79504 23491 ft 465 kts 304°
2026-05-07 20:55 18.62286 -64.82413 23676 ft 466 kts 304°
2026-05-07 20:55 18.63979 -64.85333 23866 ft 467 kts 304°
2026-05-07 20:55 18.65676 -64.88260 24074 ft 468 kts 304°
2026-05-07 20:56 18.67372 -64.91186 24292 ft 468 kts 304°
2026-05-07 20:56 18.69072 -64.94121 24503 ft 470 kts 304°
2026-05-07 20:56 18.70780 -64.97070 24692 ft 472 kts 304°
2026-05-07 20:56 18.72495 -65.00033 24937 ft 473 kts 304°
2026-05-07 20:57 18.74212 -65.03001 25222 ft 474 kts 304°
2026-05-07 20:57 18.75930 -65.05973 25496 ft 475 kts 304°
2026-05-07 20:57 18.77651 -65.08951 25784 ft 476 kts 304°
2026-05-07 20:57 18.79376 -65.11937 26070 ft 477 kts 304°
2026-05-07 20:58 18.81101 -65.14925 26452 ft 475 kts 304°
2026-05-07 20:58 18.82789 -65.17852 26898 ft 472 kts 304°
2026-05-07 20:58 18.84490 -65.20804 27344 ft 469 kts 304°
2026-05-07 20:58 18.86181 -65.23738 27768 ft 467 kts 304°
2026-05-07 20:59 18.87865 -65.26661 28178 ft 465 kts 304°
2026-05-07 20:59 18.89539 -65.29566 28575 ft 463 kts 304°
2026-05-07 20:59 18.91210 -65.32469 28949 ft 462 kts 304°
2026-05-07 20:59 18.92878 -65.35366 29315 ft 460 kts 304°
2026-05-07 21:00 18.94535 -65.38246 29722 ft 458 kts 304°
2026-05-07 21:00 18.96185 -65.41115 30116 ft 456 kts 304°
2026-05-07 21:00 18.97831 -65.43979 30439 ft 455 kts 304°
2026-05-07 21:00 18.99472 -65.46837 30734 ft 454 kts 304°
2026-05-07 21:01 19.01110 -65.49689 31031 ft 453 kts 304°
2026-05-07 21:01 19.02742 -65.52532 31330 ft 453 kts 304°
2026-05-07 21:01 19.04371 -65.55373 31619 ft 452 kts 304°
2026-05-07 21:01 19.06000 -65.58214 31923 ft 451 kts 304°
2026-05-07 21:02 19.07627 -65.61053 32027 ft 451 kts 304°
2026-05-07 21:02 19.10871 -65.66723 32034 ft 450 kts 306°
2026-05-07 21:03 19.14102 -65.72375 32033 ft 448 kts 306°
2026-05-07 21:03 19.17330 -65.78014 32034 ft 448 kts 306°
2026-05-07 21:04 19.20556 -65.83659 32035 ft 448 kts 306°
2026-05-07 21:04 19.23782 -65.89311 32035 ft 448 kts 306°
2026-05-07 21:05 19.27001 -65.94960 32030 ft 449 kts 306°
2026-05-07 21:05 19.30228 -66.00626 32033 ft 449 kts 306°
2026-05-07 21:06 19.33454 -66.06295 32035 ft 450 kts 306°
2026-05-07 21:06 19.36679 -66.11969 32034 ft 450 kts 306°
2026-05-07 21:07 19.39903 -66.17646 32035 ft 450 kts 306°
2026-05-07 21:07 19.43126 -66.23327 32035 ft 450 kts 306°
2026-05-07 21:08 19.46348 -66.29012 32032 ft 451 kts 306°
2026-05-07 21:08 19.49582 -66.34722 32038 ft 452 kts 306°
2026-05-07 21:09 19.52811 -66.40433 32031 ft 452 kts 306°
2026-05-07 21:09 19.56046 -66.46155 32033 ft 453 kts 306°
2026-05-07 21:10 19.59412 -66.51783 32032 ft 450 kts 310°
2026-05-07 21:10 19.63088 -66.57138 32027 ft 449 kts 311°
2026-05-07 21:11 19.66829 -66.62453 32032 ft 450 kts 311°
2026-05-07 21:11 19.72453 -66.70424 32039 ft 450 kts 311°
2026-05-07 21:12 19.76169 -66.75710 32033 ft 450 kts 311°
2026-05-07 21:12 19.79908 -66.81042 32040 ft 450 kts 311°
2026-05-07 21:13 19.83645 -66.86375 32030 ft 450 kts 311°
2026-05-07 21:13 19.87380 -66.91710 32029 ft 450 kts 311°
2026-05-07 21:14 19.91115 -66.97048 32039 ft 450 kts 311°
2026-05-07 21:14 19.94822 -67.02353 32040 ft 450 kts 311°
2026-05-07 21:15 19.98552 -67.07694 32037 ft 450 kts 311°
2026-05-07 21:15 20.02283 -67.13042 32026 ft 450 kts 311°
2026-05-07 21:16 20.06011 -67.18391 32044 ft 450 kts 311°
2026-05-07 21:16 20.09739 -67.23743 32036 ft 450 kts 311°
2026-05-07 21:17 20.13467 -67.29101 32039 ft 451 kts 311°
2026-05-07 21:17 20.17195 -67.34465 32037 ft 451 kts 311°
2026-05-07 21:18 20.20897 -67.39795 32034 ft 451 kts 311°
2026-05-07 21:18 20.24622 -67.45164 32030 ft 451 kts 311°
2026-05-07 21:19 20.28349 -67.50540 32028 ft 451 kts 311°
2026-05-07 21:19 20.32078 -67.55924 32028 ft 452 kts 311°
2026-05-07 21:20 20.35819 -67.61329 32034 ft 453 kts 311°
2026-05-07 21:20 20.36427 -67.62209 32034 ft 453 kts 311°
2026-05-07 21:21 20.43123 -67.71901 32034 ft 454 kts 311°
2026-05-07 21:21 20.46862 -67.77320 32034 ft 454 kts 311°
2026-05-07 21:22 20.50601 -67.82744 32034 ft 454 kts 311°
2026-05-07 21:22 20.54337 -67.88169 32034 ft 454 kts 311°
2026-05-07 21:23 20.58074 -67.93599 32034 ft 454 kts 311°
2026-05-07 21:23 20.61809 -67.99033 32034 ft 454 kts 311°
2026-05-07 21:24 20.65543 -68.04469 32034 ft 454 kts 311°
2026-05-07 21:24 20.69410 -68.09771 32033 ft 449 kts 319°
2026-05-07 21:25 20.74285 -68.13752 32037 ft 437 kts 337°
2026-05-07 21:25 20.79768 -68.16416 32039 ft 435 kts 341°
2026-05-07 21:26 20.85388 -68.18833 32040 ft 435 kts 342°
2026-05-07 21:26 20.91024 -68.21227 32038 ft 436 kts 341°
2026-05-07 21:27 20.96655 -68.23656 32038 ft 437 kts 341°
2026-05-07 21:27 21.02288 -68.26110 32042 ft 437 kts 341°
2026-05-07 21:28 21.07938 -68.28579 32042 ft 439 kts 341°
2026-05-07 21:28 21.13591 -68.31050 32042 ft 439 kts 341°
2026-05-07 21:29 21.19250 -68.33526 32041 ft 439 kts 341°
2026-05-07 21:29 21.24906 -68.36001 32043 ft 439 kts 341°
2026-05-07 21:30 21.30566 -68.38480 32041 ft 439 kts 341°
2026-05-07 21:30 21.36224 -68.40960 32043 ft 440 kts 341°
2026-05-07 21:31 21.41894 -68.43447 32044 ft 440 kts 341°
2026-05-07 21:31 21.47528 -68.45921 32045 ft 440 kts 341°
2026-05-07 21:32 21.53202 -68.48415 32045 ft 441 kts 341°
2026-05-07 21:32 21.58872 -68.50908 32046 ft 441 kts 341°
2026-05-07 21:33 21.64546 -68.53406 32034 ft 441 kts 341°
2026-05-07 21:33 21.70229 -68.55910 32048 ft 442 kts 341°
2026-05-07 21:34 21.75920 -68.58419 32048 ft 442 kts 340°
2026-05-07 21:34 21.81610 -68.60931 32048 ft 442 kts 340°
2026-05-07 21:35 21.87299 -68.63444 32048 ft 442 kts 340°
2026-05-07 21:35 21.92999 -68.65964 32048 ft 442 kts 340°
2026-05-07 21:36 21.98689 -68.68482 32049 ft 442 kts 340°
2026-05-07 21:36 22.04387 -68.71004 32048 ft 443 kts 340°
2026-05-07 21:37 22.10097 -68.73536 32046 ft 444 kts 340°
2026-05-07 21:37 22.15810 -68.76070 32045 ft 444 kts 340°
2026-05-07 21:38 22.21486 -68.78591 32051 ft 444 kts 340°
2026-05-07 21:38 22.27236 -68.81146 32051 ft 444 kts 340°
2026-05-07 21:39 22.32951 -68.83688 32051 ft 444 kts 340°
2026-05-07 21:39 22.38628 -68.86215 32037 ft 444 kts 339°
2026-05-07 21:40 22.44345 -68.88763 32051 ft 444 kts 339°
2026-05-07 21:40 22.50059 -68.91312 32051 ft 444 kts 339°
2026-05-07 21:41 22.55776 -68.93864 32048 ft 444 kts 339°
2026-05-07 21:41 22.61494 -68.96419 32053 ft 444 kts 339°
2026-05-07 21:42 22.67212 -68.98975 32055 ft 445 kts 339°
2026-05-07 21:42 22.72944 -69.01541 32054 ft 446 kts 339°
2026-05-07 21:43 22.78682 -69.04112 32057 ft 446 kts 339°
2026-05-07 21:43 22.84418 -69.06684 32054 ft 446 kts 339°
2026-05-07 21:44 22.90154 -69.09259 32054 ft 446 kts 339°
2026-05-07 21:44 22.95892 -69.11836 32064 ft 446 kts 338°
2026-05-07 21:45 23.01601 -69.14402 32058 ft 448 kts 338°
2026-05-07 21:45 23.07395 -69.17010 32061 ft 448 kts 338°
2026-05-07 21:46 23.13153 -69.19605 32052 ft 448 kts 338°
2026-05-07 21:46 23.18874 -69.22189 32058 ft 449 kts 338°
2026-05-07 21:47 23.24650 -69.24794 32062 ft 449 kts 338°
2026-05-07 21:47 23.30459 -69.27416 32059 ft 449 kts 338°
2026-05-07 21:48 23.36237 -69.30028 32060 ft 449 kts 338°
2026-05-07 21:48 23.41971 -69.32624 32058 ft 449 kts 338°
2026-05-07 21:49 23.47743 -69.35239 32062 ft 449 kts 338°
2026-05-07 21:49 23.53512 -69.37855 32063 ft 449 kts 337°
2026-05-07 21:50 23.59283 -69.40474 32063 ft 449 kts 337°
2026-05-07 21:50 23.65053 -69.43095 32059 ft 449 kts 337°
2026-05-07 21:51 23.70816 -69.45716 32058 ft 449 kts 337°
2026-05-07 21:51 23.76581 -69.48341 32064 ft 449 kts 337°
2026-05-07 21:52 23.82341 -69.50965 32066 ft 449 kts 337°
2026-05-07 21:52 23.88105 -69.53594 32060 ft 449 kts 336°
2026-05-07 21:53 23.93870 -69.56225 32063 ft 449 kts 336°
2026-05-07 21:53 23.98658 -69.58414 32063 ft 449 kts 336°
2026-05-07 21:54 24.04423 -69.61050 32064 ft 449 kts 336°
2026-05-07 21:54 24.10189 -69.63690 32065 ft 449 kts 336°
2026-05-07 21:55 24.15950 -69.66330 32070 ft 449 kts 336°
2026-05-07 21:55 24.21712 -69.68973 32070 ft 449 kts 336°
2026-05-07 21:56 24.27477 -69.71619 32070 ft 449 kts 336°
2026-05-07 21:56 24.33242 -69.74269 32068 ft 449 kts 336°
2026-05-07 21:57 24.39011 -69.76923 32071 ft 449 kts 336°
2026-05-07 21:57 24.44772 -69.79576 32071 ft 449 kts 336°
2026-05-07 21:58 24.50541 -69.82235 32069 ft 449 kts 336°
2026-05-07 21:58 24.56306 -69.84896 32078 ft 449 kts 336°
2026-05-07 21:59 24.62064 -69.87554 32070 ft 448 kts 336°
2026-05-07 21:59 24.67793 -69.90203 32072 ft 446 kts 336°
2026-05-07 22:00 24.73502 -69.92845 32072 ft 445 kts 336°
2026-05-07 22:00 24.79208 -69.95489 32072 ft 445 kts 336°
2026-05-07 22:01 24.84914 -69.98135 32072 ft 445 kts 336°
2026-05-07 22:01 24.90614 -70.00781 32071 ft 444 kts 336°
2026-05-07 22:02 24.96305 -70.03425 32072 ft 443 kts 336°
2026-05-07 22:02 25.02111 -70.05561 32074 ft 444 kts 345°
2026-05-07 22:03 25.08147 -70.07068 32078 ft 445 kts 346°
2026-05-07 22:03 25.14207 -70.08450 32076 ft 445 kts 347°
2026-05-07 22:04 25.20268 -70.09821 32078 ft 444 kts 347°
2026-05-07 22:04 25.26324 -70.11206 32074 ft 444 kts 347°
2026-05-07 22:05 25.32363 -70.12598 32076 ft 444 kts 347°
2026-05-07 22:05 25.38407 -70.13996 32077 ft 444 kts 347°
2026-05-07 22:06 25.44451 -70.15394 32073 ft 444 kts 347°
2026-05-07 22:06 25.50490 -70.16792 32080 ft 443 kts 347°
2026-05-07 22:07 25.56529 -70.18192 32075 ft 443 kts 347°
2026-05-07 22:07 25.62556 -70.19590 32075 ft 443 kts 346°
2026-05-07 22:08 25.68584 -70.20990 32078 ft 442 kts 346°
2026-05-07 22:08 25.74607 -70.22390 32078 ft 442 kts 346°
2026-05-07 22:09 25.80623 -70.23790 32078 ft 442 kts 346°
2026-05-07 22:09 25.86658 -70.25196 32175 ft 444 kts 346°
2026-05-07 22:10 25.89675 -70.25899 32504 ft 443 kts 346°
2026-05-07 22:10 25.92682 -70.26600 32878 ft 440 kts 347°
2026-05-07 22:10 25.95667 -70.27297 33233 ft 438 kts 347°
2026-05-07 22:10 25.98648 -70.27992 33560 ft 437 kts 347°
2026-05-07 22:11 26.01623 -70.28687 33887 ft 436 kts 347°
2026-05-07 22:11 26.04583 -70.29379 34180 ft 435 kts 347°
2026-05-07 22:11 26.07539 -70.30070 34466 ft 433 kts 347°
2026-05-07 22:11 26.10482 -70.30759 34755 ft 431 kts 347°
2026-05-07 22:12 26.13409 -70.31444 35064 ft 429 kts 347°
2026-05-07 22:12 26.16321 -70.32126 35336 ft 427 kts 347°
2026-05-07 22:12 26.19221 -70.32805 35586 ft 426 kts 347°
2026-05-07 22:12 26.22122 -70.33486 35816 ft 425 kts 347°
2026-05-07 22:13 26.25011 -70.34163 36044 ft 424 kts 347°
2026-05-07 22:13 26.27893 -70.34840 36264 ft 423 kts 347°
2026-05-07 22:13 26.30767 -70.35515 36481 ft 422 kts 347°
2026-05-07 22:13 26.33598 -70.36180 36693 ft 421 kts 347°
2026-05-07 22:14 26.36464 -70.36854 36904 ft 420 kts 347°
2026-05-07 22:14 26.39319 -70.37525 37112 ft 419 kts 347°
2026-05-07 22:14 26.42170 -70.38196 37313 ft 418 kts 347°
2026-05-07 22:14 26.45013 -70.38865 37521 ft 417 kts 347°
2026-05-07 22:15 26.47847 -70.39533 37702 ft 416 kts 347°
2026-05-07 22:15 26.50676 -70.40199 37883 ft 415 kts 347°
2026-05-07 22:15 26.53503 -70.40866 38041 ft 415 kts 347°
2026-05-07 22:15 26.56370 -70.41542 38082 ft 415 kts 347°
2026-05-07 22:16 26.61975 -70.42865 38081 ft 414 kts 347°
2026-05-07 22:16 26.67615 -70.44198 38089 ft 414 kts 347°
2026-05-07 22:17 26.73243 -70.45529 38083 ft 413 kts 346°
2026-05-07 22:17 26.78857 -70.46858 38084 ft 412 kts 346°
2026-05-07 22:18 26.87274 -70.48854 38084 ft 412 kts 346°
2026-05-07 22:19 26.92885 -70.50186 38081 ft 412 kts 346°
2026-05-07 22:19 26.98492 -70.51518 38086 ft 412 kts 346°
2026-05-07 22:20 27.04092 -70.52850 38084 ft 411 kts 346°
2026-05-07 22:20 27.09681 -70.54181 38081 ft 410 kts 346°
2026-05-07 22:21 27.15265 -70.55512 38081 ft 410 kts 346°
2026-05-07 22:21 27.20814 -70.56836 38080 ft 410 kts 346°
2026-05-07 22:22 27.26400 -70.58170 38082 ft 410 kts 346°
2026-05-07 22:22 27.31981 -70.59504 38074 ft 410 kts 346°
2026-05-07 22:23 27.37552 -70.60837 38080 ft 409 kts 346°
2026-05-07 22:23 27.43119 -70.62171 38074 ft 409 kts 346°
2026-05-07 22:24 27.48690 -70.63507 38073 ft 409 kts 346°
2026-05-07 22:24 27.54260 -70.64844 38087 ft 409 kts 346°
2026-05-07 22:25 27.59825 -70.66181 38085 ft 409 kts 345°
2026-05-07 22:25 27.65384 -70.67518 38081 ft 408 kts 345°
2026-05-07 22:26 27.70938 -70.68856 38084 ft 408 kts 345°
2026-05-07 22:26 27.76492 -70.70195 38084 ft 408 kts 345°
2026-05-07 22:27 27.82046 -70.71535 38086 ft 408 kts 345°
2026-05-07 22:27 27.87600 -70.72877 38085 ft 408 kts 345°
2026-05-07 22:28 27.93151 -70.74219 38087 ft 408 kts 345°
2026-05-07 22:28 27.98701 -70.75563 38085 ft 408 kts 345°
2026-05-07 22:29 28.04248 -70.76907 38076 ft 408 kts 345°
2026-05-07 22:29 28.09797 -70.78253 38081 ft 408 kts 345°
2026-05-07 22:30 28.15345 -70.79600 38096 ft 408 kts 345°
2026-05-07 22:30 28.20885 -70.80946 38082 ft 407 kts 345°
2026-05-07 22:31 28.26412 -70.82291 38080 ft 406 kts 345°
2026-05-07 22:31 28.31939 -70.83638 38079 ft 406 kts 345°
2026-05-07 22:32 28.37468 -70.84987 38082 ft 406 kts 345°
2026-05-07 22:32 28.42999 -70.86337 38082 ft 406 kts 345°
2026-05-07 22:33 28.48488 -70.87678 38080 ft 406 kts 344°
2026-05-07 22:33 28.54009 -70.89028 38081 ft 406 kts 344°
2026-05-07 22:34 28.59537 -70.90383 38078 ft 406 kts 344°
2026-05-07 22:34 28.65069 -70.91740 38077 ft 407 kts 344°
2026-05-07 22:35 28.70599 -70.93097 38081 ft 407 kts 344°
2026-05-07 22:35 28.76128 -70.94455 38081 ft 406 kts 343°
2026-05-07 22:36 28.81651 -70.95813 38075 ft 406 kts 343°
2026-05-07 22:36 28.87169 -70.97173 38075 ft 406 kts 343°
2026-05-07 22:37 28.92689 -70.98534 38077 ft 406 kts 343°
2026-05-07 22:37 28.98206 -70.99896 38077 ft 406 kts 343°
2026-05-07 22:38 29.03724 -71.01259 38087 ft 405 kts 343°
2026-05-07 22:38 29.09231 -71.02620 38065 ft 405 kts 343°
2026-05-07 22:39 29.14735 -71.03984 38067 ft 405 kts 343°
2026-05-07 22:39 29.20243 -71.05350 38075 ft 405 kts 343°
2026-05-07 22:40 29.24814 -71.06484 38074 ft 405 kts 343°
2026-05-07 22:40 29.30319 -71.07852 38067 ft 405 kts 343°
2026-05-07 22:41 29.35824 -71.09221 38075 ft 405 kts 343°
2026-05-07 22:41 29.41325 -71.10590 38067 ft 405 kts 343°
2026-05-07 22:42 29.47724 -71.12185 38073 ft 405 kts 343°
2026-05-07 22:42 29.52333 -71.13335 38065 ft 405 kts 343°
2026-05-07 22:43 29.57838 -71.14710 38075 ft 405 kts 343°
2026-05-07 22:43 29.63347 -71.16088 38059 ft 407 kts 343°
2026-05-07 22:44 29.68893 -71.17478 38074 ft 408 kts 343°
2026-05-07 22:44 29.74409 -71.18860 38062 ft 408 kts 343°
2026-05-07 22:45 29.79962 -71.20252 38067 ft 408 kts 343°
2026-05-07 22:45 29.85517 -71.21647 38055 ft 408 kts 343°
2026-05-07 22:46 29.91067 -71.23043 38062 ft 408 kts 342°
2026-05-07 22:46 29.96621 -71.24441 38059 ft 408 kts 342°
2026-05-07 22:47 30.02171 -71.25840 38058 ft 408 kts 342°
2026-05-07 22:47 30.07728 -71.27243 38059 ft 408 kts 342°
2026-05-07 22:48 30.13279 -71.28645 38060 ft 408 kts 342°
2026-05-07 22:48 30.18832 -71.30050 38061 ft 408 kts 342°
2026-05-07 22:49 30.24382 -71.31455 38056 ft 409 kts 342°
2026-05-07 22:49 30.29942 -71.32865 38050 ft 409 kts 342°
2026-05-07 22:50 30.35497 -71.34275 38052 ft 409 kts 342°
2026-05-07 22:50 30.41053 -71.35687 38047 ft 409 kts 342°
2026-05-07 22:51 30.46610 -71.37100 38048 ft 409 kts 342°
2026-05-07 22:51 30.52176 -71.38518 38047 ft 409 kts 342°
2026-05-07 22:52 30.57740 -71.39937 38044 ft 409 kts 342°
2026-05-07 22:52 30.63306 -71.41358 38044 ft 410 kts 342°
2026-05-07 22:53 30.68870 -71.42780 38045 ft 410 kts 342°
2026-05-07 22:53 30.74436 -71.44204 38040 ft 410 kts 341°
2026-05-07 22:54 30.80005 -71.45631 38042 ft 410 kts 341°
2026-05-07 22:54 30.85582 -71.47062 38043 ft 410 kts 341°
2026-05-07 22:55 30.91156 -71.48493 38045 ft 410 kts 341°
2026-05-07 22:55 30.96731 -71.49927 38037 ft 410 kts 341°
2026-05-07 22:56 31.02308 -71.51362 38038 ft 411 kts 341°
2026-05-07 22:56 31.07890 -71.52801 38034 ft 411 kts 341°
2026-05-07 22:57 31.13481 -71.54244 38036 ft 411 kts 341°
2026-05-07 22:57 31.19064 -71.55686 38034 ft 411 kts 341°
2026-05-07 22:58 31.24652 -71.57131 38029 ft 411 kts 341°
2026-05-07 22:58 31.30234 -71.58576 38029 ft 411 kts 341°
2026-05-07 22:59 31.35817 -71.60025 38028 ft 411 kts 341°
2026-05-07 22:59 31.41408 -71.61477 38023 ft 411 kts 341°
2026-05-07 23:00 31.46994 -71.62928 38025 ft 411 kts 341°
2026-05-07 23:00 31.52582 -71.64382 38023 ft 411 kts 341°
2026-05-07 23:01 31.58166 -71.65837 38023 ft 411 kts 340°
2026-05-07 23:01 31.63757 -71.67296 38020 ft 412 kts 340°
2026-05-07 23:02 31.69349 -71.68757 38020 ft 412 kts 340°
2026-05-07 23:02 31.74939 -71.70219 38021 ft 412 kts 340°
2026-05-07 23:03 31.80533 -71.71684 38018 ft 412 kts 340°
2026-05-07 23:03 31.86120 -71.73149 38003 ft 412 kts 340°
2026-05-07 23:04 31.91712 -71.74617 38007 ft 412 kts 340°
2026-05-07 23:04 31.97301 -71.76086 38000 ft 412 kts 340°
2026-05-07 23:05 32.02893 -71.77558 38018 ft 412 kts 340°
2026-05-07 23:05 32.08486 -71.79032 38020 ft 412 kts 340°
2026-05-07 23:06 32.14075 -71.80506 38012 ft 412 kts 340°
2026-05-07 23:06 32.19665 -71.81983 38003 ft 412 kts 340°
2026-05-07 23:07 32.25259 -71.83463 38001 ft 412 kts 340°
2026-05-07 23:07 32.30848 -71.84943 38000 ft 412 kts 340°
2026-05-07 23:08 32.36439 -71.86425 38017 ft 412 kts 340°
2026-05-07 23:08 32.42032 -71.87911 38000 ft 412 kts 340°
2026-05-07 23:09 32.47632 -71.89400 37999 ft 412 kts 340°
2026-05-07 23:09 32.53231 -71.90890 37992 ft 412 kts 340°
2026-05-07 23:10 32.58834 -71.92384 37996 ft 413 kts 339°
2026-05-07 23:10 32.64405 -71.93871 38005 ft 413 kts 340°
2026-05-07 23:11 32.70019 -71.95372 37988 ft 414 kts 340°
2026-05-07 23:11 32.75640 -71.96876 37988 ft 414 kts 340°
2026-05-07 23:12 32.81262 -71.98381 37980 ft 414 kts 340°
2026-05-07 23:12 32.86881 -71.99888 37980 ft 414 kts 340°
2026-05-07 23:13 32.92505 -72.01400 37982 ft 415 kts 340°
2026-05-07 23:13 32.98147 -72.02919 37977 ft 416 kts 340°
2026-05-07 23:14 33.03803 -72.04441 37972 ft 416 kts 340°
2026-05-07 23:14 33.09456 -72.05965 37968 ft 416 kts 340°
2026-05-07 23:15 33.15108 -72.07491 37967 ft 416 kts 340°
2026-05-07 23:15 33.20770 -72.09021 37967 ft 419 kts 339°
2026-05-07 23:16 33.26462 -72.10564 37968 ft 420 kts 339°
2026-05-07 23:16 33.32158 -72.12108 37956 ft 420 kts 339°
2026-05-07 23:17 33.37857 -72.13655 37953 ft 420 kts 339°
2026-05-07 23:17 33.43553 -72.15203 37960 ft 420 kts 338°
2026-05-07 23:18 33.49252 -72.16754 37951 ft 420 kts 338°
2026-05-07 23:18 33.54956 -72.18309 37947 ft 420 kts 338°
2026-05-07 23:19 33.60658 -72.19866 37946 ft 420 kts 338°
2026-05-07 23:19 33.66360 -72.21424 37944 ft 420 kts 338°
2026-05-07 23:20 33.72062 -72.22983 37948 ft 420 kts 337°
2026-05-07 23:20 33.77760 -72.24545 37938 ft 420 kts 337°
2026-05-07 23:21 33.83461 -72.26110 37939 ft 421 kts 336°
2026-05-07 23:21 33.89180 -72.27685 37929 ft 422 kts 336°
2026-05-07 23:22 33.94909 -72.29262 37966 ft 422 kts 336°
2026-05-07 23:22 34.00768 -72.30408 37925 ft 431 kts 342°
2026-05-07 23:23 34.06753 -72.31123 37921 ft 433 kts 343°
2026-05-07 23:23 34.11747 -72.31649 37922 ft 434 kts 343°
2026-05-07 23:24 34.17759 -72.32274 37919 ft 434 kts 343°
2026-05-07 23:24 34.23769 -72.32912 37920 ft 434 kts 343°
2026-05-07 23:25 34.29790 -72.33560 37911 ft 434 kts 343°
2026-05-07 23:25 34.35807 -72.34211 37905 ft 434 kts 343°
2026-05-07 23:26 34.41820 -72.34861 37903 ft 434 kts 343°
2026-05-07 23:26 34.47839 -72.35514 37907 ft 435 kts 343°
2026-05-07 23:27 34.56915 -72.36502 37897 ft 437 kts 343°
2026-05-07 23:27 34.62980 -72.37159 37885 ft 438 kts 343°
2026-05-07 23:28 34.69045 -72.37818 37876 ft 438 kts 343°
2026-05-07 23:28 34.75255 -72.37688 37878 ft 455 kts 354°
2026-05-07 23:29 34.81572 -72.36781 37870 ft 459 kts 356°
2026-05-07 23:29 34.87899 -72.35716 37872 ft 459 kts 356°
2026-05-07 23:30 34.94231 -72.34643 37900 ft 459 kts 356°
2026-05-07 23:30 35.00523 -72.34169 37870 ft 452 kts 349°
2026-05-07 23:31 35.06763 -72.34032 37865 ft 451 kts 348°
2026-05-07 23:31 35.13037 -72.33958 37865 ft 451 kts 348°
2026-05-07 23:32 35.19313 -72.33884 37901 ft 451 kts 348°
2026-05-07 23:32 35.25616 -72.33803 37854 ft 455 kts 347°
2026-05-07 23:33 35.31957 -72.33715 37853 ft 456 kts 348°
2026-05-07 23:33 35.38308 -72.33620 37848 ft 456 kts 348°
2026-05-07 23:34 35.44660 -72.33526 37860 ft 456 kts 347°
2026-05-07 23:34 35.51014 -72.33435 37842 ft 457 kts 347°
2026-05-07 23:35 35.57374 -72.33344 37837 ft 457 kts 347°
2026-05-07 23:35 35.63735 -72.33253 37834 ft 457 kts 347°
2026-05-07 23:36 35.70091 -72.33160 37843 ft 456 kts 347°
2026-05-07 23:36 35.76443 -72.33067 37832 ft 456 kts 347°
2026-05-07 23:37 35.82776 -72.32976 37826 ft 455 kts 347°
2026-05-07 23:37 35.89115 -72.32886 37827 ft 455 kts 347°
2026-05-07 23:38 35.95450 -72.32794 37824 ft 455 kts 346°
2026-05-07 23:38 36.01777 -72.32741 37819 ft 449 kts 343°
2026-05-07 23:39 36.04824 -72.33144 37825 ft 433 kts 334°
2026-05-07 23:39 36.07753 -72.33897 37822 ft 428 kts 333°
2026-05-07 23:39 36.13514 -72.35656 37823 ft 425 kts 331°
2026-05-07 23:40 36.19216 -72.37533 37821 ft 424 kts 330°
2026-05-07 23:40 36.24915 -72.39412 37822 ft 423 kts 330°
2026-05-07 23:41 36.30610 -72.41272 37821 ft 424 kts 331°
2026-05-07 23:41 36.36314 -72.43126 37822 ft 424 kts 331°
2026-05-07 23:42 36.42021 -72.44981 37846 ft 424 kts 330°
2026-05-07 23:42 36.47729 -72.46840 37829 ft 424 kts 330°
2026-05-07 23:43 36.53441 -72.48703 37834 ft 424 kts 330°
2026-05-07 23:43 36.59122 -72.50559 37834 ft 424 kts 330°
2026-05-07 23:44 36.64832 -72.52427 37838 ft 424 kts 330°
2026-05-07 23:44 36.70668 -72.53994 37847 ft 443 kts 340°
2026-05-07 23:45 36.76907 -72.54415 37848 ft 452 kts 343°
2026-05-07 23:45 36.83220 -72.54550 37858 ft 455 kts 345°
2026-05-07 23:46 36.89550 -72.54638 37896 ft 455 kts 344°
2026-05-07 23:46 36.95883 -72.54752 37862 ft 456 kts 344°
2026-05-07 23:47 37.02222 -72.54886 37867 ft 456 kts 344°
2026-05-07 23:47 37.08562 -72.55025 37875 ft 456 kts 344°
2026-05-07 23:48 37.14906 -72.55165 37876 ft 456 kts 344°
2026-05-07 23:48 37.21285 -72.55115 37878 ft 469 kts 352°
2026-05-07 23:49 37.24554 -72.54381 37878 ft 488 kts
2026-05-07 23:49 37.27837 -72.53187 37879 ft 493 kts
2026-05-07 23:49 37.34388 -72.50395 37949 ft 499 kts
2026-05-07 23:50 37.40941 -72.47428 37882 ft 502 kts
2026-05-07 23:50 37.47519 -72.44466 37887 ft 502 kts
2026-05-07 23:51 37.54102 -72.41536 37887 ft 502 kts
2026-05-07 23:51 37.60698 -72.38615 37888 ft 503 kts
2026-05-07 23:52 37.67319 -72.35681 37883 ft 505 kts
2026-05-07 23:52 37.73944 -72.32733 37883 ft 505 kts
2026-05-07 23:53 37.80571 -72.29771 37893 ft 508 kts
2026-05-07 23:53 37.83837 -72.27874 37886 ft 523 kts 16°
2026-05-07 23:53 37.87052 -72.25696 37882 ft 527 kts 18°
2026-05-07 23:54 37.93431 -72.21089 37884 ft 528 kts 20°
2026-05-07 23:54 37.99728 -72.16411 37903 ft 528 kts 20°
2026-05-07 23:55 38.06089 -72.11694 37882 ft 531 kts 20°
2026-05-07 23:55 38.12481 -72.06967 37878 ft 532 kts 20°
2026-05-07 23:56 38.18872 -72.02240 37943 ft 532 kts 20°
2026-05-07 23:56 38.25323 -71.97656 37879 ft 523 kts 11°
2026-05-07 23:57 38.28697 -71.96159 37883 ft 504 kts 360°
2026-05-07 23:57 38.32076 -71.95474 37888 ft 483 kts 350°
2026-05-07 23:57 38.38741 -71.95099 37887 ft 476 kts 346°
2026-05-07 23:58 38.45356 -71.95077 37886 ft 476 kts 345°
2026-05-07 23:58 38.51979 -71.95083 37886 ft 476 kts 345°
2026-05-07 23:59 38.58614 -71.95043 37889 ft 477 kts 346°
2026-05-07 23:59 38.65263 -71.94302 37898 ft 494 kts
2026-05-08 00:00 38.68574 -71.92839 37894 ft 515 kts 15°
2026-05-08 00:00 38.71698 -71.90417 37833 ft 535 kts 31°
2026-05-08 00:00 38.74371 -71.87021 37894 ft 549 kts 49°
2026-05-08 00:00 38.76368 -71.82826 37895 ft 555 kts 66°
2026-05-08 00:01 38.77523 -71.78127 37894 ft 551 kts 84°
2026-05-08 00:01 38.77752 -71.73288 37892 ft 539 kts 102°
2026-05-08 00:01 38.77064 -71.68676 37892 ft 517 kts 120°
2026-05-08 00:01 38.75556 -71.64641 37892 ft 488 kts 138°
2026-05-08 00:02 38.73420 -71.61488 37894 ft 454 kts 155°
2026-05-08 00:02 38.70923 -71.59243 37894 ft 426 kts 168°
2026-05-08 00:02 38.68327 -71.57745 37893 ft 407 kts 177°
2026-05-08 00:02 38.65653 -71.56757 37892 ft 393 kts 184°
2026-05-08 00:03 38.62999 -71.56227 37880 ft 379 kts 191°
2026-05-08 00:03 38.60390 -71.56050 37885 ft 375 kts 193°
2026-05-08 00:03 38.55162 -71.55815 37886 ft 377 kts 193°
2026-05-08 00:04 38.49935 -71.55709 37884 ft 372 kts 197°
2026-05-08 00:04 38.44901 -71.56570 37893 ft 363 kts 206°
2026-05-08 00:05 38.40127 -71.58432 37885 ft 353 kts 216°
2026-05-08 00:05 38.36117 -71.61734 37883 ft 336 kts 231°
2026-05-08 00:06 38.33482 -71.66443 37863 ft 327 kts 249°
2026-05-08 00:06 38.32399 -71.72043 37884 ft 329 kts 262°
2026-05-08 00:07 38.32678 -71.77926 37878 ft 339 kts 275°
2026-05-08 00:07 38.34290 -71.83688 37889 ft 355 kts 288°
2026-05-08 00:08 38.35629 -71.86392 37892 ft 367 kts 295°
2026-05-08 00:08 38.37329 -71.88878 37895 ft 380 kts 302°
2026-05-08 00:08 38.39400 -71.91079 37957 ft 395 kts 311°
2026-05-08 00:08 38.41820 -71.92884 37887 ft 413 kts 320°
2026-05-08 00:09 38.44569 -71.94201 37886 ft 433 kts 330°
2026-05-08 00:09 38.47595 -71.94916 37886 ft 453 kts 340°
2026-05-08 00:09 38.54003 -71.95182 37889 ft 465 kts 345°
2026-05-08 00:10 38.60491 -71.95118 37889 ft 468 kts 347°
2026-05-08 00:10 38.63792 -71.94757 37907 ft 487 kts 357°
2026-05-08 00:10 38.66013 -71.94122 37897 ft 500 kts
2026-05-08 00:11 38.69313 -71.92447 37892 ft 521 kts 19°
2026-05-08 00:11 38.72373 -71.89828 37855 ft 539 kts 34°
2026-05-08 00:11 38.74942 -71.86273 37894 ft 551 kts 51°
2026-05-08 00:11 38.76804 -71.81961 37890 ft 555 kts 69°
2026-05-08 00:12 38.77804 -71.77212 37891 ft 550 kts 86°
2026-05-08 00:12 38.77878 -71.72380 37892 ft 537 kts 104°
2026-05-08 00:12 38.77047 -71.67820 37892 ft 515 kts 122°
2026-05-08 00:12 38.75419 -71.63893 37891 ft 485 kts 141°
2026-05-08 00:13 38.73200 -71.60852 37891 ft 453 kts 156°
2026-05-08 00:13 38.70659 -71.58679 37890 ft 427 kts 169°
2026-05-08 00:13 38.67998 -71.57232 37889 ft 406 kts 179°
2026-05-08 00:13 38.65318 -71.56375 37886 ft 389 kts 187°
2026-05-08 00:14 38.62678 -71.56031 37879 ft 375 kts 194°
2026-05-08 00:14 38.60083 -71.55995 37886 ft 373 kts 195°
2026-05-08 00:14 38.54871 -71.55921 37827 ft 377 kts 193°
2026-05-08 00:15 38.49637 -71.55846 37886 ft 372 kts 197°
2026-05-08 00:15 38.44581 -71.56730 37885 ft 364 kts 206°
2026-05-08 00:16 38.39816 -71.58682 37886 ft 353 kts 217°
2026-05-08 00:16 38.35891 -71.62137 37885 ft 337 kts 233°
2026-05-08 00:17 38.33350 -71.66991 37872 ft 328 kts 250°
2026-05-08 00:17 38.32347 -71.72645 37883 ft 331 kts 263°
2026-05-08 00:18 38.32735 -71.78506 37883 ft 341 kts 276°
2026-05-08 00:18 38.34500 -71.84241 37884 ft 358 kts 289°
2026-05-08 00:19 38.35918 -71.86907 37889 ft 370 kts 296°
2026-05-08 00:19 38.37699 -71.89344 37886 ft 383 kts 304°
2026-05-08 00:19 38.39838 -71.91472 37941 ft 399 kts 313°
2026-05-08 00:19 38.42329 -71.93189 37888 ft 416 kts 322°
2026-05-08 00:20 38.45134 -71.94393 37887 ft 436 kts 332°
2026-05-08 00:20 38.48201 -71.94977 37887 ft 455 kts 342°
2026-05-08 00:20 38.54608 -71.95180 37889 ft 464 kts 345°
2026-05-08 00:21 38.61088 -71.95097 37886 ft 469 kts 348°
2026-05-08 00:21 38.64397 -71.94619 37891 ft 489 kts 359°
2026-05-08 00:21 38.67723 -71.93381 37897 ft 509 kts 12°
2026-05-08 00:22 38.70916 -71.91246 37884 ft 528 kts 26°
2026-05-08 00:22 38.73749 -71.88161 37886 ft 544 kts 43°
2026-05-08 00:22 38.75982 -71.84202 37890 ft 552 kts 60°
2026-05-08 00:22 38.77452 -71.79659 37895 ft 554 kts 71°
2026-05-08 00:23 38.80735 -71.70698 37926 ft 559 kts 52°
2026-05-08 00:23 38.83151 -71.66833 37889 ft 551 kts 38°
2026-05-08 00:23 38.86080 -71.63795 37893 ft 533 kts 22°
2026-05-08 00:24 38.89341 -71.61769 37887 ft 511 kts
2026-05-08 00:24 38.92723 -71.60776 37892 ft 487 kts 352°
2026-05-08 00:24 38.96026 -71.60736 37886 ft 464 kts 339°
2026-05-08 00:24 38.99115 -71.61514 37885 ft 442 kts 328°
2026-05-08 00:25 39.01899 -71.62962 37911 ft 423 kts 318°
2026-05-08 00:25 39.04330 -71.64953 37893 ft 407 kts 308°
2026-05-08 00:25 39.06391 -71.67354 37892 ft 394 kts 300°
2026-05-08 00:25 39.08074 -71.70063 37886 ft 382 kts 292°
2026-05-08 00:26 39.09371 -71.72984 37888 ft 371 kts 285°
2026-05-08 00:26 39.10291 -71.76049 37887 ft 363 kts 278°
2026-05-08 00:26 39.11425 -71.82325 37887 ft 359 kts 274°
2026-05-08 00:27 39.12340 -71.88638 37889 ft 359 kts 274°
2026-05-08 00:27 39.13247 -71.94968 37890 ft 361 kts 274°
2026-05-08 00:28 39.14188 -72.01354 37891 ft 364 kts 274°
2026-05-08 00:28 39.15423 -72.07714 37888 ft 372 kts 283°
2026-05-08 00:29 39.17895 -72.13649 37891 ft 389 kts 297°
2026-05-08 00:29 39.19708 -72.16310 37894 ft 401 kts 305°
2026-05-08 00:29 39.21792 -72.18737 37894 ft 407 kts 307°
2026-05-08 00:30 39.26192 -72.23402 37890 ft 410 kts 309°
2026-05-08 00:30 39.30654 -72.27999 37897 ft 411 kts 310°
2026-05-08 00:31 39.35100 -72.32634 37895 ft 410 kts 310°
2026-05-08 00:31 39.39518 -72.37295 37892 ft 410 kts 309°
2026-05-08 00:32 39.43930 -72.41976 37892 ft 410 kts 309°
2026-05-08 00:32 39.48337 -72.46660 37892 ft 410 kts 309°
2026-05-08 00:33 39.52743 -72.51348 37892 ft 410 kts 309°
2026-05-08 00:33 39.57148 -72.56042 37894 ft 410 kts 309°
2026-05-08 00:34 39.61548 -72.60740 37937 ft 410 kts 310°
2026-05-08 00:34 39.65937 -72.65430 37886 ft 408 kts 310°
2026-05-08 00:35 39.70315 -72.70119 37893 ft 408 kts 309°
2026-05-08 00:35 39.74684 -72.74808 37890 ft 408 kts 309°
2026-05-08 00:36 39.79053 -72.79505 37893 ft 407 kts 309°
2026-05-08 00:36 39.83682 -72.83819 37892 ft 421 kts 319°
2026-05-08 00:37 39.88848 -72.87479 37889 ft 425 kts 320°
2026-05-08 00:38 39.96758 -72.92749 37894 ft 426 kts 321°
2026-05-08 00:38 40.02036 -72.96268 37897 ft 425 kts 321°
2026-05-08 00:39 40.07294 -72.99800 37889 ft 425 kts 321°
2026-05-08 00:39 40.12549 -73.03349 37881 ft 426 kts 320°
2026-05-08 00:40 40.18022 -73.06437 37881 ft 445 kts 332°
2026-05-08 00:40 40.21156 -73.07246 37876 ft 461 kts 342°
2026-05-08 00:40 40.24375 -73.07306 37878 ft 479 kts 354°
2026-05-08 00:40 40.27718 -73.06506 37875 ft 498 kts
2026-05-08 00:41 40.30981 -73.04761 37946 ft 516 kts 20°
2026-05-08 00:41 40.33989 -73.02075 37884 ft 531 kts 33°
2026-05-08 00:41 40.36808 -72.98911 37873 ft 537 kts 36°
2026-05-08 00:42 40.42664 -72.92984 37868 ft 522 kts 19°
2026-05-08 00:42 40.45939 -72.91106 37667 ft 506 kts
2026-05-08 00:42 40.49313 -72.90123 37449 ft 488 kts 355°
2026-05-08 00:42 40.52668 -72.89773 37187 ft 480 kts 350°
2026-05-08 00:43 40.55995 -72.89742 36930 ft 477 kts 347°
2026-05-08 00:43 40.59300 -72.89866 36668 ft 475 kts 346°
2026-05-08 00:43 40.62641 -72.89799 36391 ft 488 kts 354°
2026-05-08 00:43 40.66031 -72.89070 36135 ft 501 kts
2026-05-08 00:44 40.69368 -72.87511 35892 ft 517 kts 17°
2026-05-08 00:44 40.72489 -72.85034 35693 ft 532 kts 31°
2026-05-08 00:44 40.75284 -72.81776 35446 ft 539 kts 38°
2026-05-08 00:44 40.77955 -72.78298 35220 ft 541 kts 39°
2026-05-08 00:45 40.80616 -72.74778 34994 ft 541 kts 39°
2026-05-08 00:45 40.83274 -72.71268 34768 ft 541 kts 39°
2026-05-08 00:45 40.85936 -72.67763 34532 ft 540 kts 39°
2026-05-08 00:45 40.88604 -72.64258 34353 ft 540 kts 39°
2026-05-08 00:46 40.91264 -72.60766 34127 ft 539 kts 39°
2026-05-08 00:46 40.93920 -72.57277 33854 ft 538 kts 39°
2026-05-08 00:46 40.96581 -72.53781 33583 ft 538 kts 39°
2026-05-08 00:46 40.99235 -72.50291 33317 ft 538 kts 39°
2026-05-08 00:47 41.01857 -72.46840 33050 ft 538 kts 39°
2026-05-08 00:47 41.04542 -72.43301 32779 ft 538 kts 39°
2026-05-08 00:47 41.07197 -72.39797 32566 ft 538 kts 39°
2026-05-08 00:47 41.09846 -72.36297 32304 ft 538 kts 39°
2026-05-08 00:48 41.12493 -72.32796 32036 ft 537 kts 39°
2026-05-08 00:48 41.15103 -72.29340 31788 ft 538 kts 39°
2026-05-08 00:48 41.17784 -72.25786 31538 ft 538 kts 39°
2026-05-08 00:48 41.20436 -72.22267 31251 ft 539 kts 39°
2026-05-08 00:49 41.23050 -72.18792 31056 ft 540 kts 39°
2026-05-08 00:49 41.25742 -72.15209 30798 ft 540 kts 39°
2026-05-08 00:49 41.28396 -72.11674 30561 ft 541 kts 39°
2026-05-08 00:49 41.31015 -72.08180 30011 ft 539 kts 40°
2026-05-08 00:50 41.33706 -72.04589 28780 ft 543 kts 40°
2026-05-08 00:50 41.36333 -72.01077 27820 ft 542 kts 40°
2026-05-08 00:50 41.39020 -71.97479 26804 ft 540 kts 41°
2026-05-08 00:50 41.41634 -71.93975 25775 ft 540 kts 41°
2026-05-08 00:51 41.44280 -71.90423 24683 ft 541 kts 41°
2026-05-08 00:51 41.46931 -71.86860 23678 ft 540 kts 42°
2026-05-08 00:51 41.49563 -71.83318 22646 ft 536 kts 42°
2026-05-08 00:51 41.52171 -71.79803 21654 ft 530 kts 42°
2026-05-08 00:52 41.54753 -71.76318 20692 ft 525 kts 43°
2026-05-08 00:52 41.57308 -71.72868 19764 ft 520 kts 43°
2026-05-08 00:52 41.59833 -71.69453 18872 ft 514 kts 43°
2026-05-08 00:52 41.62323 -71.66082 18343 ft 500 kts 43°
2026-05-08 00:53 41.64727 -71.62819 17737 ft 487 kts 43°
2026-05-08 00:53 41.67082 -71.59567 16643 ft 487 kts 47°
2026-05-08 00:53 41.68894 -71.55780 15745 ft 483 kts 65°
2026-05-08 00:53 41.70138 -71.51649 14981 ft 474 kts 70°
2026-05-08 00:54 41.71244 -71.47598 14742 ft 452 kts 70°
2026-05-08 00:54 41.72334 -71.43760 14604 ft 428 kts 65°
2026-05-08 00:54 41.73621 -71.40351 14496 ft 394 kts 60°
2026-05-08 00:54 41.74907 -71.37269 14393 ft 367 kts 58°
2026-05-08 00:55 41.76158 -71.34332 14296 ft 361 kts 58°
2026-05-08 00:55 41.77404 -71.31418 14173 ft 360 kts 58°
2026-05-08 00:55 41.78646 -71.28513 14051 ft 359 kts 58°
2026-05-08 00:55 41.79880 -71.25621 13902 ft 357 kts 58°
2026-05-08 00:56 41.81104 -71.22749 13679 ft 354 kts 58°
2026-05-08 00:56 41.82323 -71.19885 13334 ft 353 kts 58°
2026-05-08 00:56 41.83531 -71.17041 12915 ft 349 kts 58°
2026-05-08 00:56 41.84722 -71.14237 12498 ft 341 kts 58°
2026-05-08 00:57 41.85859 -71.11574 12153 ft 327 kts 57°
2026-05-08 00:57 41.87010 -71.08906 11758 ft 328 kts 57°
2026-05-08 00:57 41.88144 -71.06287 11530 ft 330 kts 57°
2026-05-08 00:57 41.89292 -71.03637 11330 ft 327 kts 57°
2026-05-08 00:58 41.90427 -71.01009 11125 ft 324 kts 57°
2026-05-08 00:58 41.91551 -70.98401 10911 ft 322 kts 57°
2026-05-08 00:58 41.92665 -70.95812 10720 ft 319 kts 57°
2026-05-08 00:58 41.93773 -70.93237 10520 ft 317 kts 57°
2026-05-08 00:59 41.94872 -70.90681 10323 ft 315 kts 57°
2026-05-08 00:59 41.95964 -70.88138 10100 ft 313 kts 57°
2026-05-08 00:59 41.97047 -70.85617 9903 ft 312 kts 57°
2026-05-08 00:59 41.98128 -70.83096 9711 ft 310 kts 57°
2026-05-08 01:00 41.98840 -70.81437 9571 ft 309 kts 57°
2026-05-08 01:00 42.00266 -70.78108 9311 ft 306 kts 57°
2026-05-08 01:00 42.01019 -70.76512 9172 ft 303 kts 51°
2026-05-08 01:00 42.02341 -70.74333 8977 ft 300 kts 45°
2026-05-08 01:01 42.03726 -70.72246 8794 ft 298 kts 45°
2026-05-08 01:01 42.05112 -70.70186 8626 ft 296 kts 45°
2026-05-08 01:01 42.06493 -70.68130 8436 ft 295 kts 45°
2026-05-08 01:01 42.07861 -70.66087 8254 ft 294 kts 45°
2026-05-08 01:02 42.09222 -70.64051 8068 ft 292 kts 45°
2026-05-08 01:02 42.10713 -70.62226 7900 ft 287 kts 29°
2026-05-08 01:02 42.12528 -70.61248 7625 ft 279 kts
2026-05-08 01:02 42.14424 -70.60774 7393 ft 277 kts
2026-05-08 01:03 42.16322 -70.60389 7175 ft 276 kts
2026-05-08 01:03 42.18215 -70.60009 6939 ft 274 kts
2026-05-08 01:03 42.20067 -70.59630 6691 ft 272 kts
2026-05-08 01:03 42.21933 -70.59241 6471 ft 271 kts
2026-05-08 01:04 42.23746 -70.58858 6308 ft 257 kts
2026-05-08 01:04 42.25473 -70.58489 6108 ft 246 kts
2026-05-08 01:04 42.27134 -70.58134 5894 ft 237 kts
2026-05-08 01:04 42.28728 -70.57793 5705 ft 227 kts
2026-05-08 01:05 42.30264 -70.57465 5512 ft 223 kts
2026-05-08 01:05 42.31796 -70.57139 5333 ft 222 kts
2026-05-08 01:05 42.33323 -70.56814 5140 ft 223 kts
2026-05-08 01:05 42.34958 -70.56460 4976 ft 249 kts
2026-05-08 01:06 42.36616 -70.56182 4965 ft 228 kts 355°
2026-05-08 01:06 42.38126 -70.56407 5011 ft 213 kts 347°
2026-05-08 01:06 42.39587 -70.56773 4979 ft 214 kts 346°
2026-05-08 01:06 42.41050 -70.57180 4971 ft 214 kts 340°
2026-05-08 01:07 42.42209 -70.58313 4967 ft 207 kts 300°
2026-05-08 01:07 42.42589 -70.60173 4979 ft 208 kts 275°
2026-05-08 01:07 42.42498 -70.62135 4970 ft 211 kts 262°
2026-05-08 01:07 42.42185 -70.64079 4974 ft 212 kts 259°
2026-05-08 01:08 42.41843 -70.66021 4976 ft 211 kts 258°
2026-05-08 01:08 42.41510 -70.67880 4971 ft 196 kts 259°
2026-05-08 01:08 42.41208 -70.69534 4973 ft 185 kts 258°
2026-05-08 01:08 42.40910 -70.71155 4914 ft 172 kts 259°
2026-05-08 01:09 42.40625 -70.72709 4586 ft 170 kts 259°
2026-05-08 01:09 42.40341 -70.74294 4068 ft 176 kts 258°
2026-05-08 01:09 42.40057 -70.75897 3720 ft 172 kts 259°
2026-05-08 01:09 42.39782 -70.77449 3464 ft 168 kts 259°
2026-05-08 01:10 42.39515 -70.78978 3214 ft 166 kts 260°
2026-05-08 01:10 42.39253 -70.80485 3004 ft 164 kts 260°
2026-05-08 01:10 42.38989 -70.81994 2713 ft 165 kts 259°
2026-05-08 01:10 42.38723 -70.83504 2193 ft 167 kts 260°
2026-05-08 01:11 42.38458 -70.85004 1862 ft 161 kts 260°
2026-05-08 01:11 42.38198 -70.86467 1714 ft 160 kts 260°
2026-05-08 01:11 42.37939 -70.87933 1696 ft 161 kts 261°
2026-05-08 01:11 42.37686 -70.89357 1692 ft 145 kts 261°
2026-05-08 01:12 42.37457 -70.90607 1488 ft 132 kts 261°
2026-05-08 01:12 42.37242 -70.91780 1152 ft 128 kts 262°
2026-05-08 01:12 42.37049 -70.92979 940 ft 131 kts 259°
2026-05-08 01:12 42.36835 -70.94180 754 ft 132 kts 259°
2026-05-08 01:13 42.36623 -70.95371 587 ft 132 kts 258°
2026-05-08 01:13 42.36411 -70.96572 403 ft 131 kts 259°
2026-05-08 01:13 42.36194 -70.97773 226 ft 132 kts 257°
2026-05-08 01:13 42.35984 -70.98974 33 ft 128 kts 259°
2026-05-08 01:14 42.35814 -70.99968 29 ft 71 kts 256°
2026-05-08 01:14 42.35753 -71.00296 29 ft 31 kts 256°
2026-05-08 01:14 42.35675 -71.00736 29 ft 49 kts 257°
2026-05-08 01:14 42.35602 -71.01145 29 ft 38 kts 257°
2026-05-08 01:15 42.35634 -71.01316 29 ft 9 kts 359°
2026-05-08 01:15 42.35680 -71.01297 29 ft 0 kts 19°
2026-05-08 01:15 42.35711 -71.01287 29 ft 10 kts
2026-05-08 01:15 42.35739 -71.01313 29 ft 4 kts 299°
2026-05-08 01:16 42.35739 -71.01314 29 ft 0 kts 299°
2026-05-08 01:16 42.35740 -71.01315 29 ft 1 kts 299°
2026-05-08 01:16 42.35744 -71.01327 29 ft 2 kts 296°
2026-05-08 01:17 42.35756 -71.01365 29 ft 5 kts 291°
2026-05-08 01:17 42.35772 -71.01412 29 ft 6 kts 302°
2026-05-08 01:17 42.35805 -71.01432 29 ft 6 kts 10°
2026-05-08 01:17 42.35846 -71.01416 29 ft 7 kts 21°
2026-05-08 01:18 42.35895 -71.01390 29 ft 8 kts 20°
2026-05-08 01:18 42.35955 -71.01360 29 ft 10 kts 19°
2026-05-08 01:18 42.36027 -71.01327 28 ft 12 kts 19°
2026-05-08 01:18 42.36108 -71.01288 28 ft 13 kts 19°
2026-05-08 01:19 42.36159 -71.01263 28 ft 1 kts 19°
2026-05-08 01:19 42.36169 -71.01258 28 ft 2 kts 19°
2026-05-08 01:19 42.36218 -71.01234 28 ft 10 kts 19°
2026-05-08 01:19 42.36286 -71.01201 28 ft 11 kts 19°
2026-05-08 01:20 42.36364 -71.01164 29 ft 13 kts 19°
2026-05-08 01:20 42.36452 -71.01122 29 ft 14 kts 19°
2026-05-08 01:20 42.36533 -71.01121 29 ft 11 kts 316°
2026-05-08 01:20 42.36568 -71.01215 29 ft 12 kts 292°
2026-05-08 01:21 42.36603 -71.01279 29 ft 7 kts 348°
2026-05-08 01:21 42.36656 -71.01263 29 ft 8 kts 14°
2026-05-08 01:21 42.36698 -71.01294 29 ft 8 kts 282°
2026-05-08 01:21 42.36693 -71.01369 29 ft 7 kts 245°
2026-05-08 01:22 42.36689 -71.01377 29 ft 2 kts 242°
2026-05-08 01:22 42.36681 -71.01399 29 ft 4 kts 242°
2026-05-08 01:22 42.36660 -71.01427 29 ft 5 kts 217°
2026-05-08 01:22 42.36627 -71.01460 29 ft 6 kts 216°
2026-05-08 01:23 42.36619 -71.01467 29 ft 2 kts 216°
2026-05-08 01:23 42.36616 -71.01470 29 ft 0 kts 216°